This is the latest recevied weather packets stored in our database for station/object N2PPN. If no packets are shown the sender has not sent any weather packets the latest 10 day(s).
| Time | Temp. | Humidity | Pressure | Rain* | Wind** | Luminosity | Snow |
|---|---|---|---|---|---|---|---|
| 1777908778 | 17.78° C | 47% | 1016 hPa | 0 mm | - | 687 W/m² | - |
| 1777908475 | 17.78° C | 48% | 1016.4 hPa | 0 mm | - | 681 W/m² | - |
| 1777908171 | 17.78° C | 46% | 1016.2 hPa | 0 mm | - | 674 W/m² | - |
| 1777907867 | 17.22° C | 47% | 1016.2 hPa | 0 mm | - | 671 W/m² | - |
| 1777907563 | 17.78° C | 47% | 1016.4 hPa | 0 mm | - | 663 W/m² | - |
| 1777907259 | 17.22° C | 48% | 1016.5 hPa | 0 mm | - | 656 W/m² | - |
| 1777906956 | 17.78° C | 47% | 1016.4 hPa | 0 mm | - | 646 W/m² | - |
| 1777906654 | 17.78° C | 47% | 1016.6 hPa | 0 mm | - | 640 W/m² | - |
| 1777906350 | 17.22° C | 45% | 1016.4 hPa | 0 mm | - | 628 W/m² | - |
| 1777906046 | 17.22° C | 45% | 1016.5 hPa | 0 mm | - | 621 W/m² | - |
| 1777905743 | 17.22° C | 47% | 1016.7 hPa | 0 mm | - | 614 W/m² | - |
| 1777905440 | 16.67° C | 47% | 1016.7 hPa | 0 mm | - | 603 W/m² | - |
| 1777905138 | 17.22° C | 47% | 1016.5 hPa | 0 mm | - | 593 W/m² | - |
| 1777904834 | 16.67° C | 49% | 1016.6 hPa | 0 mm | - | 583 W/m² | - |
| 1777904532 | 16.67° C | 49% | 1016.6 hPa | 0 mm | - | 573 W/m² | - |
| 1777904228 | 16.67° C | 48% | 1016.6 hPa | 0 mm | - | 560 W/m² | - |
| 1777903925 | 16.67° C | 50% | 1016.7 hPa | 0 mm | - | 551 W/m² | - |
| 1777903622 | 16.67° C | 50% | 1016.5 hPa | 0 mm | - | 538 W/m² | - |
| 1777903318 | 16.67° C | 49% | 1016.5 hPa | 0 mm | - | 524 W/m² | - |
| 1777903015 | 16.11° C | 50% | 1016.5 hPa | 0 mm | - | 521 W/m² | - |
| 1777902711 | 16.67° C | 50% | 1016.7 hPa | 0 mm | - | 507 W/m² | - |
| 1777902409 | 16.11° C | 51% | 1016.6 hPa | 0 mm | - | 494 W/m² | - |
| 1777902105 | 16.11° C | 50% | 1016.7 hPa | 0 mm | - | 481 W/m² | - |
| 1777901804 | 15.56° C | 53% | 1016.8 hPa | 0 mm | - | 468 W/m² | - |
| 1777901501 | 16.67° C | 52% | 1016.8 hPa | 0 mm | - | 454 W/m² | - |
* Rain latest hour (hover to see other rain measurements)
** Current wind speed in m/s (hover to see current wind gust speed)